Regional Weather Roundup
Issued by NWS

Home | Current Version | Previous Version | Graphics & Text | Print | Product List | Glossary On
Versions: 1 2 3 4 5 6 7 8 9 10 11 12 13 14 15 16 17 18 19 20 21 22 23 24 25 26 27 28 29 30 31 32 33 34 35 36 37 38 39 40 41 42 43 44 45 46 47 48 49 50
000
ASUS43 KMPX 280101
RWRMN
WEATHER ROUNDUP FOR MINNESOTA
NATIONAL WEATHER SERVICE TWIN CITIES/CHANHASSEN MN
800 PM CDT WED APR 27 2016


NOTE: "FAIR" INDICATES FEW OR NO CLOUDS BELOW 12,000 FEET WITH NO
SIGNIFICANT WEATHER AND/OR OBSTRUCTIONS TO VISIBILITY. N/A MEANS
CURRENT SKY AND/OR WEATHER CONDITIONS ARE NOT AVAILABLE.

MNZ060>063-068>070-280200-
   Twin Cities Metro

CITY           SKY/WX    TMP DP  RH WIND       PRES   REMARKS
TWIN CITIES    CLOUDY    45  38  76 E14       29.87S
ST PAUL        CLOUDY    44  38  79 E9        29.88F
CRYSTAL        CLOUDY    46  38  73 E9        29.86S
EDEN PRAIRIE   CLOUDY    45  37  73 E15G25    29.84F
SOUTH ST PAUL  CLOUDY    44  40  85 E7        29.87F
LAKE ELMO      CLOUDY    43  39  87 E7        29.89F
$$
MNZ001>005-007-008-013>017-022>024-027-028-280200-
   Northwest Minnesota

CITY           SKY/WX    TMP DP  RH WIND       PRES   REMARKS
BEMIDJI        PTCLDY    51  22  32 E10G17    29.97R
HALLOCK        CLOUDY    54  18  24 E12G17    30.02R
ROSEAU         CLOUDY    48  27  43 NE15      30.04S
WARROAD        CLOUDY    46  25  42 NE13G18   30.06R
THIEF RVR FALL CLOUDY    52  21  30 NE15      29.99S
CROOKSTON      CLOUDY    54  23  30 E13       29.98R
FOSSTON        CLOUDY    50  27  40 NE6       29.96R
MOORHEAD       CLOUDY    54  25  32 E13       29.91S
PARK RAPIDS    CLOUDY    50  13  22 E14G23    29.93S
MAHNOMEN       FAIR      52  23  32 E15       29.92S
$$
MNZ006-009>011-018-025>026-280200-
   North Central Minnesota

CITY           SKY/WX    TMP DP  RH WIND       PRES   REMARKS
BAUDETTE       MOCLDY    51  17  26 NE10      30.03R
FLAG ISLAND    CLOUDY    50  18  27 NE12      30.07R
INTL FALLS     CLOUDY    50  17  27 NE7       30.03S
WASKISH        PTCLDY    52  25  35 NE7       30.00S
BIG FORK       PTCLDY    52  19  28 E5        30.00R
LONGVILLE      CLOUDY    46  12  25 E6        29.98R
GRAND RAPIDS   PTCLDY    46  12  25 SE8       30.01R
CRANE LAKE     PTCLDY    48  12  23 CALM      30.05R
ORR            CLOUDY    50  12  22 CALM      29.99S
COOK           CLOUDY    48  19  32 E3        30.01S
WALKER         FAIR      48  22  34 E9        29.96S
$$
MNZ012-019>021-037-280200-
   Northeast Minnesota

CITY           SKY/WX    TMP DP  RH WIND       PRES   REMARKS
DULUTH         CLOUDY    39  11  31 E15       30.02R
ELY            CLOUDY    50  12  22 E3        30.02S
HIBBING        PTCLDY    43  20  39 SE10      30.00R
EVELETH        PTCLDY    45  19  36 SE5       30.02R
DULUTH HARBOR  CLOUDY    37  30  75 NE20      30.04S
TWO HARBORS    CLOUDY    41  19  42 NE8       30.02S
SILVER BAY     CLOUDY    37  14  38 N7        30.03F
GRAND MARAIS     N/A     37  24  59 NE3       30.08S
G MARAIS ARPRT CLOUDY    37  16  41 CALM      30.05S
$$
MNZ029>031-032-039>041-046>048-054>057-064-280200-
   West Central Minnesota

CITY           SKY/WX    TMP DP  RH WIND       PRES   REMARKS
FERGUS FALLS   CLOUDY    46  19  34 E13G22    29.88R
WHEATON        LGT RAIN  43  36  75 NE12G17   29.92R
MORRIS         LGT RAIN  43  34  70 E16       29.86R
ALEXANDRIA     LGT RAIN  41  29  62 E12G21    29.89R
ELBOW LAKE     CLOUDY    46  24  42 NE10      29.88R
WADENA         MOCLDY    45  16  31 E14G23    29.90S
GLENWOOD       DRIZZLE   39  34  81 NE17      29.87S
APPLETON       CLOUDY    45  39  81 E7        29.85S
BENSON         CLOUDY    43  37  81 E7        29.86S
ORTONVILLE     DRIZZLE   41  36  81 E9        29.86R
MADISON        LGT RAIN  43  39  87 E18G24    29.85R
WILLMAR        CLOUDY    45  39  81 E15G23    29.84F
$$
MNZ033>034-036-042>043-049>051-058-059-280200-
   Central Minnesota

CITY           SKY/WX    TMP DP  RH WIND       PRES   REMARKS
ST CLOUD       CLOUDY    44  29  55 E9        29.87S
SAUK CENTRE    LGT RAIN  41  29  64 E9        29.89R
PAYNESVILLE    CLOUDY    44  37  77 E7        29.87F
AITKIN         CLOUDY    45   0  15 NE14      29.95S
PINE RIVER     CLOUDY    46  18  31 E18G26    29.99S
BRAINERD       CLOUDY    44   6  21 E15G22    29.94S
STAPLES        MOCLDY    45   5  19 E15G21    29.91F
LONG PRAIRIE   MIX PCPN  41  23  48 NE18G25   29.88S
LITTLE FALLS   RAIN      43  16  33 E12G21    29.90R
LITCHFIELD     CLOUDY    45  41  87 E14G21    29.86S
BUFFALO        CLOUDY    44  37  78 E13       29.87F
MAPLE LAKE     CLOUDY    45  40  82 E10G17    29.87F
HUTCHINSON     CLOUDY    44  40  85 NE16G26   29.83F
$$
MNZ037-044-045-052-053-280200-
   East Central Minnesota

CITY           SKY/WX    TMP DP  RH WIND       PRES   REMARKS
PRINCETON      RAIN      45  34  65 E5        29.88S
MORA           CLOUDY    43  21  42 NE8       29.94S
CAMBRIDGE      LGT RAIN  46  34  61 NE8       29.86F
RUSH CITY      CLOUDY    46  24  42 NE13G22   29.91F
MOOSE LAKE     CLOUDY    41  18  38 NE7       29.96F
HINCKLEY       CLOUDY    43  25  49 NE9       29.95R
CLOQUET        MOCLDY    41   3  20 E18G24    29.99F
MCGREGOR       CLOUDY    43   9  24 NE10G23   29.99S
$$
MNZ071>073-080-081-089-090-097-098-280200-
   Southwest Minnesota

CITY           SKY/WX    TMP DP  RH WIND       PRES   REMARKS
MONTEVIDEO     LGT RAIN  41  41 100 SE18G25   29.85S
GRANITE FALLS  CLOUDY    44  40  88 NE15G25   29.83S
CANBY          LGT RAIN  44  42  93 NE16G22   29.84R
MARSHALL       LGT RAIN  41  39  93 E16G22    29.80S FOG
REDWOOD FALLS  LGT RAIN  42  39  89 E15G22    29.80S FOG
OLIVIA         CLOUDY    41  37  87 E13G21    29.81F
PIPESTONE      CLOUDY    43  37  81 E18G30    29.72S
WINDOM         HVY RAIN  41  39  93 E17G24    29.76R
WORTHINGTON    LGT RAIN  40  39  97 NE20G29   29.72S FOG
JACKSON        LGT SNOW  41  37  87 E16G24    29.74F
TRACY          RAIN      41  41  98 E17G23    29.78S
SLAYTON        CLOUDY    40  40 100 E18G24    29.77S
$$
MNZ065>067-074>077-082>085-091>093-280200-
   South Central Minnesota

CITY           SKY/WX    TMP DP  RH WIND       PRES   REMARKS
MANKATO        CLOUDY    45  37  76 E18G29    29.79R
NEW ULM        CLOUDY    43  39  87 E15G26    29.79S
ST JAMES       CLOUDY    37  36  93 NE21G26   29.77F
FAIRMONT       CLOUDY    45  34  65 E20       29.74R
GLENCOE        CLOUDY    44  41  88 E15G24    29.82F
FARIBAULT      CLOUDY    43  41  93 NE17G26   29.81F
OWATONNA       CLOUDY    43  37  81 E26G36    29.79S
ALBERT LEA     CLOUDY    45  39  81 E14G26    29.77R
$$
MNZ078>079-086>088-094>096-280200-
   Southeast Minnesota

CITY           SKY/WX    TMP DP  RH WIND       PRES   REMARKS
ROCHESTER      CLOUDY    41  38  89 E21G31    29.80F
RED WING       DRIZZLE   43  37  81 E12G20    29.86F
STANTON        CLOUDY    44  38  78 E23       29.82F
DODGE CENTER   CLOUDY    39  39 100 E30G37    29.78F
WINONA         DRIZZLE   43  41  93 E9        29.86F
AUSTIN         CLOUDY    43  37  81 E18G25    29.77R
PRESTON        CLOUDY    41  36  82 E16G24    29.80S
$$
ABBREVIATIONS USED IN REMARKS
   TC - TEMPERATURES IN CELSIUS
  WCI - WIND CHILL INDEX
   HX - HEAT INDEX
  VSB - VISIBILITY
$$




USA.gov is the U.S. government's official web portal to all federal, state and local government web resources and services.